Hourly Data Report for July 27, 2019

PITT MEADOWS CS
BRITISH COLUMBIA
Current Station Operator: ECCC - MSC

49°12'29.964" N
122°41'24.076" W
5.00 m
1106178
71775
WMM

Download Data

Hourly Data (July 2019)
Hourly Data Report for July 27, 2019
TIME
LST
Temp Definition
°C
Dew Point Definition
°C
Rel Hum Definition
%
Precip. Amount Definition
mm

Wind Dir Definition
10's deg

Wind Spd Definition
km/h
Visibility Definition
km
Stn Press Definition
kPa
Hmdx Definition


Wind Chill Definition


Weather Definition


00:00 18.6 15.9 84 0.7 16 5   101.64     LegendNANA
01:00 17.7 16.3 91 5.6 23 6   101.68     LegendNANA
02:00 17.5 16.3 93 3.8 20 9   101.69     LegendNANA
03:00 17.2 16.1 93 6.3 17 8   101.71     LegendNANA
04:00 17.0 15.8 93 0.9 15 3   101.74     LegendNANA
05:00 17.2 15.7 91 0.0 18 5   101.79     LegendNANA
06:00 17.3 15.1 87 0.0 16 3   101.89     LegendNANA
07:00 18.1 14.4 79 0.0 18 4   101.97     LegendNANA
08:00 19.2 13.9 72 0.0 17 8   102.04     LegendNANA
09:00 20.0 14.7 72 0.0 21 7   102.07     LegendNANA
10:00 21.4 12.5 57 0.0 25 16   102.14     LegendNANA
11:00 22.0 11.9 53 0.0 25 12   102.19     LegendNANA
12:00 22.3 11.4 50 0.0 23 13   102.24     LegendNANA
13:00 22.1 11.4 51 0.0 21 9   102.27     LegendNANA
14:00 22.8 12.1 51 0.0 24 10   102.29 25   LegendNANA
15:00 23.4 11.2 46 0.0 23 11   102.31 25   LegendNANA
16:00 24.0 9.5 40 0.0 25 10   102.28 25   LegendNANA
17:00 23.5 10.8 45 0.0 24 8   102.28 25   LegendNANA
18:00 22.9 10.1 44 0.0 24 8   102.27     LegendNANA
19:00 22.0 9.9 46 0.0 22 5   102.28     LegendNANA
20:00 20.3 10.6 54 0.0 21 3   102.29     LegendNANA
21:00 18.0 11.7 67 0.0 9 2   102.31     LegendNANA
22:00 16.6 12.1 75 0.0 10 4   102.30     LegendNANA
23:00 15.4 12.1 81 0.0 9 3   102.31     LegendNANA

Notes on Data Quality.

Legend

  • E = Estimated
  • M = Missing
  • NA = Not Available*
  • [empty] = Indicates an unobserved value
Date modified: